Helicity
44 44 39 46 50 52 52 53 39 22 13 21 55 86 -2 15 66 81 126 112 153 176 109 72 92 59 43 48 45 46 49 113 72 50 37 39 43 45
54 65 60 48 43 40 45 55 54 51 62 62 20 20 22 30 60 70 71 57 49 20 91 78 61 57 55 58 54 59 74 116 88 67 45 35 46 51
73 76 75 67 62 53 45 43 36 33 20 32 24 36 43 48 25 28 42 48 44 50 63 69 87 44 62 43 60 65 82 125 106 86 66 47 43 50
83 78 79 73 79 73 66 57 37 28 30 45 43 39 44 65 62 69 61 67 71 93 76 56 29 72 114 73 42 61 89 132 129 113 87 67 47 43
81 81 83 82 86 80 73 66 60 57 42 40 51 48 48 55 74 89 86 85 57 77 96 42 93 98 100 68 59 52 81 135 127 130 126 91 66 46
88 89 96 100 100 90 75 74 71 59 49 75 81 58 48 45 43 36 57 77 83 89 100 75 67 85 101 162 73 72 71 121 135 128 144 131 103 59
83 84 82 89 77 74 84 90 76 76 78 72 69 61 71 75 65 28 37 12 14 98 111 103 61 59 92 112 70 67 94 122 117 142 147 129 111 80
107 99 88 82 73 70 86 85 88 104 101 90 82 72 56 57 52 53 26 2 -67 12 49 27 44 16 71 76 107 64 85 160 193 143 145 137 104 84
119 111 111 108 99 106 98 84 75 82 87 94 75 70 69 62 69 48 49 57 46 57 33 55 42 62 102 129 103 78 63 37 154 169 166 168 127 89
139 129 137 127 107 112 128 125 111 111 107 109 94 90 96 102 86 64 44 43 55 39 30 -8 35 41 83 120 111 95 33 52 106 182 187 191 149 94
204 164 152 137 123 109 111 104 120 116 105 75 67 72 72 80 88 99 83 67 47 38 24 6 17 71 77 101 95 83 60 6 30 102 204 183 151 109
247 218 171 152 137 127 143 154 149 137 128 109 98 84 85 105 111 103 116 97 88 27 94 51 35 14 -94 5 39 46 50 -15 -24 89 139 165 147 217
283 278 259 203 172 171 167 183 164 155 150 164 138 111 99 97 106 122 140 156 122 107 108 71 4 52 68 29 -18 44 11 75 16 109 93 134 92 159
272 271 264 233 205 198 195 149 121 136 164 163 174 146 117 102 84 111 130 141 143 126 109 103 80 42 63 53 -4 -23 20 27 46 100 166 134 57 56
293 271 252 224 176 184 155 140 172 181 166 204 173 150 119 93 103 112 110 133 126 135 126 123 109 69 67 54 20 -18 -11 15 60 65 151 201 191 178
273 254 220 207 182 173 185 160 167 155 189 184 158 145 127 97 82 107 103 124 160 134 142 111 102 79 51 31 36 15 35 38 -18 51 106 169 190 207
218 237 235 227 226 225 215 205 212 206 198 168 146 151 130 137 116 77 107 114 110 100 128 74 87 70 67 48 26 26 31 78 73 94 129 176 224 236
194 229 233 231 227 219 220 200 169 138 135 118 122 106 145 130 105 109 104 73 97 88 57 63 28 47 58 40 42 50 51 60 102 143 129 155 188 246
237 238 235 221 212 229 233 216 199 170 132 147 163 160 149 132 113 88 74 67 87 54 20 14 24 36 9 1 48 22 52 66 103 116 143 160 156 208
223 232 226 227 220 221 212 198 179 184 210 200 169 160 153 116 96 56 38 69 55 25 -3 5 20 37 30 9 -9 20 15 62 105 105 131 153 201 130
199 202 205 213 216 217 215 213 214 227 206 194 190 158 121 102 76 58 59 30 15 -2 -25 -16 29 74 61 53 -19 -19 -3 12 117 147 170 136 176 185
212 217 222 227 223 217 216 218 216 208 207 206 192 172 143 125 106 98 84 33 -8 -22 -8 -12 14 55 59 46 11 1 7 32 70 136 142 133 130 142
195 208 221 223 223 217 208 215 215 212 195 183 175 161 141 132 107 106 84 37 4 -17 -6 -24 14 51 62 59 53 7 45 21 65 104 161 72 117 129
Wind_Speed
47 48 46 47 47 47 48 49 51 56 62 58 54 59 69 70 66 71 71 73 73 79 80 78 79 84 88 83 80 75 65 47 49 49 47 44 43 41
46 48 48 48 48 50 51 52 53 55 60 59 68 72 76 75 68 68 69 70 70 70 74 77 79 79 82 86 85 79 64 53 52 49 47 46 42 39
47 47 49 50 51 51 53 55 57 59 68 72 69 73 76 77 77 75 64 68 67 68 75 79 83 82 81 82 83 81 66 57 53 50 47 45 43 38
48 48 50 51 52 53 55 58 60 64 71 78 76 75 77 78 78 78 75 67 69 73 81 82 80 82 83 86 83 80 69 59 56 52 47 45 43 40
48 50 51 53 55 56 59 60 62 65 69 75 80 76 75 74 76 74 76 77 75 76 81 81 82 82 84 74 83 82 73 62 58 54 49 45 43 40
50 52 53 54 57 60 60 63 65 69 69 75 79 81 80 78 77 82 84 79 86 83 79 74 79 79 78 79 80 80 81 69 62 57 52 48 43 41
53 54 54 56 58 58 62 65 67 70 73 76 80 83 84 86 87 84 86 88 86 80 79 82 85 85 80 82 75 76 75 70 71 63 55 49 45 42
58 58 58 60 58 59 62 64 66 72 76 80 83 86 86 86 87 88 92 93 94 69 94 98 90 93 87 84 82 79 80 72 60 70 65 56 49 43
59 61 61 59 59 63 64 66 66 68 69 75 84 84 87 85 88 92 91 92 95 90 94 100 85 90 85 85 89 81 80 83 66 59 65 59 51 46
61 62 64 63 62 64 67 69 68 66 68 69 72 75 77 82 85 89 93 95 91 86 83 103 88 93 91 88 90 92 85 83 69 54 55 63 53 52
64 63 64 65 63 64 70 75 73 74 70 69 71 75 77 78 78 84 94 97 103 98 84 90 79 92 92 94 83 82 85 83 70 56 51 60 59 52
66 66 64 65 67 67 71 76 81 80 76 77 78 79 79 78 78 77 80 94 96 97 65 88 95 89 88 77 72 79 84 83 74 65 57 54 56 56
75 74 67 66 68 71 72 77 81 78 83 84 85 85 84 84 81 78 78 83 92 96 90 90 95 96 90 100 95 86 84 83 72 67 62 58 55 53
79 77 75 72 74 77 80 81 82 85 85 87 87 89 92 91 88 79 81 83 83 92 90 87 94 94 99 105 106 87 84 83 76 72 68 69 61 54
77 78 80 81 83 86 87 87 87 88 85 86 90 88 85 86 88 92 84 84 83 87 84 83 86 89 93 103 107 101 94 85 81 76 71 70 68 61
78 80 81 83 87 87 85 83 82 81 84 89 89 86 81 88 88 86 94 85 91 96 83 82 88 86 97 99 101 106 93 92 79 83 76 74 73 70
76 79 83 84 86 87 85 82 82 82 87 86 83 85 87 86 90 89 85 93 93 97 97 86 81 83 89 99 102 99 97 91 87 83 79 81 78 73
78 83 85 85 86 88 87 86 82 83 82 81 85 85 87 90 92 88 90 87 91 94 93 91 92 93 91 91 88 96 93 94 88 83 83 83 84 76
90 92 93 94 93 91 88 86 87 85 85 85 84 87 86 89 93 94 90 86 91 96 94 90 86 87 95 102 89 78 92 89 87 88 84 83 84 79
86 91 94 92 92 93 88 87 87 84 83 84 85 85 85 90 93 95 89 89 92 97 97 92 88 84 90 96 98 95 83 90 88 90 85 79 75 69
86 87 87 88 90 90 89 89 87 89 87 88 89 90 90 89 91 87 89 95 101 102 102 96 87 87 88 89 99 98 89 85 90 89 80 80 79 75
86 87 87 88 90 91 92 92 92 93 94 93 95 94 92 90 91 88 92 101 101 101 100 95 89 86 86 91 99 98 95 84 84 86 82 77 71 81
87 87 88 88 89 89 90 90 92 93 93 94 93 92 91 93 91 88 90 98 102 103 100 98 91 85 91 90 96 96 97 89 85 87 88 86 79 76
Wind_Direction
353 353 354 351 348 347 341 337 335 324 310 320 329 328 324 328 333 322 314 312 305 295 293 293 291 285 281 282 283 286 291 296 304 310 316 324 331 341
350 349 349 348 344 338 334 332 326 321 316 321 319 322 321 320 324 323 324 320 312 309 300 295 294 293 287 282 282 284 287 290 296 302 309 315 323 332
347 347 345 344 341 338 333 329 325 322 314 314 320 321 320 320 318 317 323 321 319 314 308 300 292 292 291 288 283 282 283 284 289 295 301 307 314 323
340 340 340 340 338 337 334 330 325 321 318 316 319 322 321 320 319 319 317 319 318 316 306 303 300 294 292 288 286 282 281 280 283 288 294 300 306 314
333 332 333 333 332 331 330 328 326 325 322 318 317 322 324 325 322 322 321 318 317 316 309 306 298 294 291 299 287 281 278 276 278 282 286 293 298 305
326 326 327 327 326 325 325 324 323 322 322 321 320 319 321 322 323 319 317 319 315 315 313 311 305 300 301 296 292 286 276 275 274 276 279 284 291 296
320 321 321 321 321 321 321 321 321 320 319 319 318 318 318 318 318 319 316 316 316 314 312 310 307 301 299 295 297 294 283 275 271 272 274 278 283 287
314 315 317 317 318 319 319 319 319 317 316 316 314 314 316 317 317 315 313 313 309 318 309 304 307 299 296 293 292 294 289 280 271 267 269 272 276 280
309 311 313 315 315 315 315 315 315 316 315 314 311 312 312 315 315 313 311 309 306 310 309 303 308 302 300 294 288 292 291 282 274 265 265 267 270 273
304 305 306 308 310 311 312 312 313 315 315 315 313 314 314 314 313 311 310 307 307 309 310 300 306 301 300 296 290 282 284 287 276 264 261 263 265 268
300 301 302 303 305 307 308 307 309 311 313 312 311 311 312 312 312 311 306 305 302 303 308 302 307 303 300 293 293 287 280 282 278 267 260 259 262 264
297 297 297 297 301 303 303 304 304 306 309 309 309 309 309 309 309 308 308 302 302 302 307 303 302 306 298 297 293 295 284 279 278 271 262 256 258 262
293 295 296 296 297 299 300 300 301 305 305 305 304 304 304 305 305 305 305 303 300 296 301 302 296 296 293 290 289 289 284 278 278 274 266 256 253 257
291 293 294 295 294 296 297 297 298 300 301 301 302 302 302 300 300 303 302 302 300 297 301 299 294 293 290 286 280 284 285 278 274 273 269 260 253 252
290 292 293 293 293 294 293 293 295 296 298 298 299 301 302 301 300 300 301 302 299 297 299 298 293 291 287 282 277 275 276 278 270 269 267 261 254 255
291 292 292 292 292 292 293 293 292 292 294 296 298 300 301 299 298 299 299 300 298 295 300 297 290 289 284 280 274 269 273 270 270 264 265 262 256 255
291 291 291 290 291 291 290 291 292 292 292 294 296 297 298 297 297 299 298 298 298 294 295 292 291 287 285 277 271 270 267 269 266 264 263 261 257 254
290 289 289 289 289 289 289 290 290 291 291 293 293 293 294 295 296 297 298 296 294 294 289 287 287 285 283 279 275 270 268 266 264 263 260 260 257 254
290 290 289 289 289 289 290 290 290 290 291 291 291 292 293 293 293 293 293 291 291 288 284 283 282 282 277 269 277 278 268 265 262 258 259 259 258 256
290 290 289 290 290 289 290 291 291 290 289 289 290 291 292 292 291 289 286 286 286 281 278 278 279 280 276 272 273 275 273 263 259 256 257 261 260 260
292 291 291 291 290 290 290 290 290 288 288 289 289 289 289 289 289 287 282 280 278 275 273 274 278 281 281 281 270 268 270 267 259 255 258 257 255 254
293 293 292 291 290 290 289 289 288 287 287 286 286 286 286 286 285 284 281 277 274 272 273 275 278 280 279 275 268 268 267 267 260 254 254 254 255 250
294 293 292 291 291 290 289 288 287 286 286 285 285 284 283 282 282 282 281 274 271 270 271 272 276 278 276 273 270 267 263 261 256 251 251 249 252 251